VHUHR WIMM-WIMM

Flight info

Callsign VHUHR
Flight time 0h 2m
Altitude 5
Route DURIAN
Aircraft ALO3/L-S/SB1

Departure

Time 2026-05-07 04:16
Airport Kualanamu International Airport (WIMM)

Arrival

Time 2026-05-07 04:18
Airport Kualanamu International Airport (WIMM)
Time Latitude Longitude Altitude Speed Heading
2026-05-07 04:11 3.62788 98.86628 28 ft 0 kts 135°
2026-05-07 04:11 3.62789 98.86629 28 ft 0 kts 68°
2026-05-07 04:12 3.62790 98.86629 28 ft 1 kts 24°
2026-05-07 04:12 3.62791 98.86627 28 ft 0 kts 324°
2026-05-07 04:12 3.62809 98.86607 28 ft 7 kts 315°
2026-05-07 04:12 3.62850 98.86556 28 ft 8 kts 266°
2026-05-07 04:13 3.62805 98.86507 28 ft 12 kts 228°
2026-05-07 04:13 3.62750 98.86447 28 ft 8 kts 242°
2026-05-07 04:13 3.62762 98.86390 28 ft 10 kts 309°
2026-05-07 04:13 3.62823 98.86331 28 ft 12 kts 315°
2026-05-07 04:14 3.62913 98.86306 28 ft 18 kts
2026-05-07 04:14 3.63083 98.86351 28 ft 29 kts 42°
2026-05-07 04:14 3.63335 98.86564 48 ft 70 kts 44°
2026-05-07 04:14 3.63794 98.86880 253 ft 84 kts 25°
2026-05-07 04:15 3.64378 98.87099 404 ft 95 kts 11°
2026-05-07 04:15 3.65030 98.87053 513 ft 107 kts 329°
2026-05-07 04:15 3.65670 98.86552 438 ft 118 kts 312°
2026-05-07 04:15 3.66256 98.86015 558 ft 111 kts 334°
2026-05-07 04:16 3.66994 98.85854 617 ft 112 kts 354°
2026-05-07 04:16 3.67489 98.85503 784 ft 86 kts 238°
2026-05-07 04:16 3.67000 98.85210 617 ft 101 kts 175°
2026-05-07 04:16 3.66236 98.85261 461 ft 110 kts 165°
2026-05-07 04:17 3.65484 98.85292 453 ft 105 kts 180°
2026-05-07 04:17 3.64788 98.85365 378 ft 109 kts 160°
2026-05-07 04:17 3.64048 98.85583 267 ft 103 kts 158°
2026-05-07 04:17 3.63403 98.85729 290 ft 85 kts 175°
2026-05-07 04:18 3.62855 98.85603 264 ft 76 kts 195°
2026-05-07 04:18 3.62497 98.85741 266 ft 61 kts 88°
2026-05-07 04:18 3.62822 98.86092 59 ft 62 kts 58°
2026-05-07 04:18 3.63019 98.86292 28 ft 10 kts 66°
2026-05-07 04:19 3.62963 98.86312 28 ft 15 kts 187°
2026-05-07 04:19 3.62883 98.86294 28 ft 8 kts 177°
2026-05-07 04:19 3.62831 98.86320 28 ft 12 kts 136°
2026-05-07 04:19 3.62783 98.86367 28 ft 6 kts 134°
2026-05-07 04:20 3.62771 98.86378 28 ft 0 kts 138°